CW1793 Weather Reports


time (UTC)temp
F
wind
direction
speed
knots
gust
knots
rain 1hr
in
rain 24hr
in
rain mn
in
humidity
%
barometer
mb
20260507193034 61 270 5.2 15.6 0.00 0.43 0.00 32 1018.7
20260507191525 61 210 8.7 12.2 0.00 0.43 0.00 35 1019.0
20260507190022 60 323 7.0 13.0 0.00 0.43 0.00 35 1019.4
20260507184519 60 207 7.8 14.8 0.00 0.55 0.00 36 1019.8
20260507183034 59 277 7.0 14.8 0.00 0.55 0.00 36 1020.0
20260507181513 58 265 9.6 13.9 0.00 0.55 0.00 37 1020.1
20260507180011 57 270 6.1 11.3 0.00 0.55 0.00 40 1020.5
20260507174512 57 241 5.2 8.7 0.00 0.64 0.00 39 1020.5
20260507173008 57 241 5.2 12.2 0.00 0.64 0.00 39 1020.7
20260507171503 56 243 10.4 13.9 0.00 0.64 0.00 39 1021.1
20260507170000 55 257 5.2 11.3 0.00 0.64 0.00 39 1021.5
20260507164603 56 242 7.8 13.0 0.00 0.64 0.00 38 1021.7
20260507163100 54 236 7.8 12.2 0.00 0.64 0.00 39 1021.9
20260507161554 53 246 7.8 13.0 0.00 0.64 0.00 41 1022.1
20260507160053 52 260 6.1 11.3 0.00 0.64 0.00 43 1022.2
20260507154545 51 244 5.2 11.3 0.00 0.64 0.00 43 1022.4
20260507153045 50 262 5.2 10.4 0.00 0.64 0.00 44 1022.7
20260507151538 49 257 4.3 7.8 0.00 0.64 0.00 46 1022.7
20260507150035 48 219 3.5 9.6 0.00 0.64 0.00 46 1022.7
20260507144535 46 224 6.1 12.2 0.00 0.64 0.00 48 1022.8
20260507143027 45 252 6.1 9.6 0.00 0.64 0.00 47 1022.9
20260507141524 44 250 5.2 10.4 0.00 0.64 0.00 49 1023.0
20260507140021 43 253 6.1 10.4 0.00 0.64 0.00 49 1023.3
20260507134517 42 244 5.2 8.7 0.00 0.64 0.00 50 1023.3
20260507133014 41 229 1.7 6.1 0.00 0.64 0.00 51 1023.2
20260507131509 39 262 5.2 7.8 0.00 0.64 0.00 52 1023.2
20260507130020 38 244 2.6 7.0 0.00 0.64 0.00 53 1023.4
20260507124505 38 244 5.2 10.4 0.00 0.64 0.00 53 1023.0
20260507123002 37 256 5.2 9.6 0.00 0.64 0.00 54 1022.7
20260507121502 37 252 7.0 11.3 0.00 0.64 0.00 54 1022.6
20260507120059 36 238 7.0 11.3 0.00 0.64 0.00 55 1022.6
20260507114613 36 240 6.1 10.4 0.00 0.64 0.00 56 1022.7
20260507113058 36 249 7.8 11.3 0.00 0.64 0.00 56 1022.8
20260507111557 36 249 5.2 11.3 0.00 0.64 0.00 55 1022.7
20260507110057 36 236 7.0 9.6 0.00 0.64 0.00 55 1022.7
20260507104557 36 250 7.0 10.4 0.00 0.64 0.00 55 1022.8
20260507103049 36 227 5.2 10.4 0.00 0.64 0.00 56 1022.8
20260507101548 35 245 4.3 10.4 0.00 0.64 0.00 57 1023.1
20260507100045 35 257 7.0 10.4 0.00 0.64 0.00 57 1023.3
20260507094543 35 240 7.0 11.3 0.00 0.64 0.00 57 1023.3
20260507093042 35 242 6.1 10.4 0.00 0.64 0.00 58 1023.5
20260507091542 35 239 7.0 11.3 0.00 0.64 0.00 60 1023.5
20260507090037 35 260 3.5 12.2 0.00 0.64 0.00 60 1023.4
20260507084535 35 252 5.2 10.4 0.00 0.64 0.00 59 1023.6
20260507083035 35 251 7.0 13.0 0.00 0.64 0.00 60 1023.6
20260507081531 35 247 7.0 11.3 0.00 0.64 0.00 63 1023.5
20260507080029 35 244 5.2 10.4 0.00 0.64 0.00 65 1023.7
20260507074528 34 252 6.1 10.4 0.00 0.64 0.00 67 1024.0
20260507073028 34 248 6.1 9.6 0.00 0.64 0.00 69 1024.2
20260507071522 34 251 4.3 8.7 0.00 0.64 0.00 69 1024.3
20260507070019 33 259 5.2 10.4 0.00 0.64 0.00 73 1024.3
20260507064515 33 245 4.3 9.6 0.00 0.64 0.00 77 1024.5
20260507063025 33 240 2.6 6.1 0.00 0.64 0.00 77 1024.7
20260507061510 33 236 2.6 5.2 0.00 0.64 0.00 78 1024.5
20260507060015 33 226 2.6 3.5 0.00 0.64 0.00 80 1024.8
20260507054505 33 232 3.5 6.1 0.00 0.64 0.64 81 1024.9
20260507053006 33 241 3.5 7.0 0.00 0.64 0.64 80 1024.7
20260507051505 33 237 3.5 6.1 0.00 0.64 0.64 80 1024.5
20260507050003 33 220 3.5 6.1 0.00 0.64 0.64 80 1024.4
20260507044502 33 234 3.5 6.1 0.00 0.64 0.64 81 1024.5
20260507043002 33 209 3.5 5.2 0.00 0.64 0.64 82 1024.4
20260507041502 33 235 4.3 7.0 0.00 0.64 0.64 82 1024.4
20260507040000 33 226 4.3 7.8 0.00 0.64 0.64 82 1024.2
20260507034611 33 211 4.3 7.8 0.00 0.64 0.64 82 1024.3
20260507033104 33 202 4.3 8.7 0.00 0.64 0.64 81 1024.1
20260507031618 33 217 5.2 8.7 0.00 0.64 0.64 81 1024.1
20260507030058 34 212 4.3 8.7 0.00 0.64 0.64 81 1023.9
20260507024557 34 192 3.5 7.8 0.00 0.64 0.64 81 1023.9
20260507023056 34 180 4.3 8.7 0.00 0.64 0.64 80 1023.8
20260507021556 34 173 2.6 5.2 0.00 0.64 0.64 80 1023.8
20260507020054 35 173 0.0 3.5 0.00 0.64 0.64 80 1023.9
20260507014557 35 157 1.7 5.2 0.00 0.64 0.64 78 1023.9
20260507013109 36 162 1.7 6.1 0.00 0.64 0.64 77 1023.8
20260507011553 36 110 0.9 2.6 0.00 0.64 0.64 77 1023.9
20260507004551 36 165 4.3 7.8 0.00 0.64 0.64 74 1024.0
20260507003049 36 173 1.7 8.7 0.00 0.64 0.64 75 1024.0
20260507001552 36 145 3.5 8.7 0.00 0.64 0.64 75 1024.0
20260507000047 36 107 2.6 8.7 0.00 0.64 0.64 77 1024.2
20260506234548 36 116 4.3 7.8 0.00 0.64 0.64 76 1024.0
20260506233100 36 115 4.3 7.0 0.01 0.64 0.64 76 1024.2
20260506231547 36 96 1.7 7.0 0.01 0.64 0.64 77 1024.4
20260506230048 35 80 0.9 7.0 0.02 0.64 0.64 77 1024.4
20260506224546 36 105 2.6 7.0 0.03 0.66 0.64 75 1024.3
20260506223041 36 216 1.7 4.3 0.03 0.65 0.63 78 1024.6
20260506221545 34 262 0.9 3.5 0.05 0.65 0.63 79 1024.9
20260506220042 35 228 0.9 2.6 0.05 0.64 0.62 78 1025.0
20260506214539 34 84 1.7 3.5 0.06 0.66 0.61 79 1025.1
20260506213040 34 343 0.0 2.6 0.09 0.65 0.60 77 1025.3
20260506211540 33 344 0.0 4.3 0.11 0.63 0.57 79 1025.4
20260506210039 34 265 1.7 5.2 0.15 0.62 0.56 78 1025.3
20260506204538 34 17 0.0 3.5 0.20 0.61 0.55 78 1025.4
20260506203037 35 328 0.9 4.3 0.21 0.56 0.51 80 1025.5
20260506201537 34 355 0.9 4.3 0.22 0.53 0.47 81 1025.7
20260506200041 35 5 2.6 7.0 0.20 0.47 0.41 83 1025.6
20260506194534 35 20 1.7 5.2 0.18 0.44 0.35 86 1025.5